STARLINK-32346, 61849

Orbit data source: Space-Track

STARLINK-32346, 61849 is a payload satellite owned by SpaceX/Seattle (US) in LEO that was launched on Thu, 07 Nov 2024 UTC via an FALCON 9 launch vehicle from the Air Force Eastern Test Range (AFETR). Payload-class satellites include a variety of spacecraft equipped with specific instruments for various scientific and technological missions. These include communications satellites like Starlink; space stations such as the ISS; scientific satellites like the Hubble; Earth observation satellites from companies like Planet Labs, Umbra, and HawkEye 360; GPS; miniature CubeSats for education and research; and military/defense satellites.

Loading next visibility...
Identifier
61849, 2024-202E
Orbit
LEO
Last TLE update
18 hours ago
Origin
Manufacturer
SpaceX/Seattle
Mission
Operational Commercial Communications
Bus & Motor
STARLINK V2M, Unknown motor
Mass
730 kg wet, ~700 kg dry
Launch date (UTC)
2024-11-07 (8 months ago)
Launch vehicle
FALCON 9
Launch site
Air Force Eastern Test Range (AFETR)
Object type
Payload
Rocket body
Debris
Shape & HBR
Box + 2 Pan, 29 m
Radar Cross Section
33.884 m², Large (>1 m²)

Expand to show TLE details & history

TLE from 18 hours ago
0 STARLINK-32346
1 61849U 24202E   25181.48321927 -.00000822  00000-0 -20357-4 0  9996
2 61849  42.9994 211.2716 0001266 209.0881 150.9900 15.27563612 36887
Epoch: 2025-06-30T11:35Z
TLE epoch observation values (Epoch: 2025-06-30T11:35:50.144Z)
Latitude
-0.00005°
Longitude
118.52023°
Altitude
483.633 km
Speed
7.625 km/s
True Right ascension
14h 05m 05s
True Declination
0° 00' 00"
Sunlit
Object was in daylight at epoch
Visualization orbit readout
Latitude
-28.2343°
Longitude
-30.83698°
Altitude
489.587 km
Speed
7.621 km/s
Apparent Right ascension
04h 43m 25s
Apparent Declination
-34° 05' 25"
Sunlit
Object is in daylight
Visualization observer readout
Local Sidereal Time
17:27:43
Azimuth
60.065° ENE
Elevation
-79.422°
Doppler factor
1
Orbital elements
Apogee altitude
485.912 km
Perigee altitude
484.175 km
Semi-major axis
6,863.18 km
Eccentricity
0.00013
Inclination
42.9994°
RAAN
211.2716°
Arg. of periapsis
209.0881°
True anomaly
Unknown
Mean anomaly
150.99°
Eccentric anomaly
Unknown
Mean motion
3.81729 °/min
Orbital period
94.31 mins
BSTAR
-0.000020357
Loading maneuver chart data...
Loading SW <> Apogee altitude chart data...
Loading historical data...
Loading historical data...
Loading historical data...
Loading historical data...
Loading historical data...
Loading historical data...
Loading historical data...

STARLINK-32346 Visibility forecast

Observer location: undefined°, undefined°

Span
Click to sort rows by Start time (UTC) header in descending order
Start Az.
Max El. time (UTC)
Max El. Az.
Max El.
End time (UTC)
End Az.
6 mins2025-07-01 06:42:01.705Z260.462° W2025-07-01 06:45:01.705Z339.646° N43.861°2025-07-01 06:48:01.705Z69.582° E
5 mins2025-07-01 08:22:01.705Z293.335° NW2025-07-01 08:24:01.705Z348.288° N37.912°2025-07-01 08:27:01.705Z76.772° E
6 mins2025-07-01 10:01:01.705Z285.36° WNW2025-07-01 10:03:01.705Z258.777° W43.398°2025-07-01 10:07:01.705Z114.236° SE
4 mins2025-07-02 04:37:01.705Z190.457° SSW2025-07-02 04:39:01.705Z133.46° SE26.235°2025-07-02 04:41:01.705Z93.433° ESE
|